Hourly Data Report for October 27, 2015

All times are specified in Local Standard Time (LST). Add 1 hour to adjust for Daylight Saving Time where and when it is observed.

GJOA HAVEN A
NUNAVUT

68°38'08.000" N
95°51'01.000" W
46.90 m
2302337
71597
YHK

Download Data

Hourly Data (October 2015)
Hourly Data Report for October 27, 2015
Temp Definition
°C
Dew Point Temp Definition
°C
Rel Hum Definition
%
Wind Dir Definition
10's deg

Wind Spd Definition
km/h
Visibility Definition
km
Stn Press Definition
kPa
Hmdx Definition


Wind Chill Definition


Weather Definition


TIME
00:00 Legend Double Dagger -14.7 -16.1 89 31 37 4.0 100.50   -27 Snow
01:00 Legend Double Dagger -15.2 -16.6 89 31 37 8.1 100.53   -27 Snow
02:00 Legend Double Dagger -15.6 -17.2 88 32 35 16.1 100.54   -28 LegendNANA
03:00 Legend Double Dagger -15.2 -16.6 89 31 35 16.1 100.57   -27 LegendNANA
04:00 Legend Double Dagger -15.5 -16.9 89 31 37 11.3 100.60   -28 Snow
05:00 Legend Double Dagger -15.3 -16.7 89 31 34 14.5 100.63   -27 Snow
06:00 Legend Double Dagger -15.2 -16.6 89 31 30 14.5 100.65   -26 Snow
07:00 Legend Double Dagger -16.0 -17.4 89 31 28 16.1 100.66   -27 Snow
08:00 Legend Double Dagger -14.4 -15.7 90 32 34 14.5 100.68   -26 Snow
09:00 Legend Double Dagger -15.2 -16.6 89 33 26 16.1 100.68   -26 Snow
10:00 Legend Double Dagger -15.5 -17.1 88 31 30 16.1 100.65   -27 LegendNANA
11:00 Legend Double Dagger -15.2 -16.6 89 32 30 16.1 100.68   -26 Snow
12:00 Legend Double Dagger -15.5 -16.9 89 31 28 16.1 100.70   -26 Snow
13:00 Legend Double Dagger -16.0 -17.6 88 30 21 16.1 100.73   -26 Snow
14:00 Legend Double Dagger -16.5 -18.1 88 29 21 16.1 100.74   -26 Snow
15:00 Legend Double Dagger -17.5 -18.9 89 28 18 16.1 100.80   -27 LegendNANA
16:00 Legend Double Dagger -17.1 -18.5 89 30 21 16.1 100.76   -27 LegendNANA
17:00 Legend Double Dagger -15.7 -17.1 89 30 18 16.1 100.77   -25 LegendNANA
18:00 Legend Double Dagger -16.3 -17.9 88 30 13 16.1 100.77   -24 LegendNANA
19:00 Legend Double Dagger -15.4 -16.7 90 30 9 16.1 100.76   -21 LegendNANA
20:00 Legend Double Dagger -15.3 -16.7 89 32 13 16.1 100.74   -23 LegendNANA
21:00 Legend Double Dagger -15.2 -16.5 90 32 11 16.1 100.73   -22 LegendNANA
22:00 Legend Double Dagger -15.1 -16.5 89 33 9 16.1 100.75   -21 LegendNANA
23:00 Legend Double Dagger -15.0 -16.3 90 31 11 16.1 100.72   -22 LegendNANA

Notes on Data Quality.

Legend

  • E = Estimated
  • M = Missing
  • NA = Not Available
  • ‡ = Partner data that is not subject to review by the National Climate Archives
Date modified: